Torna al catalogo

ARIANE 5 R/B

AttivoGTO
NORAD 49058·ROCKET BODY·🇫🇷 France

Lanciato Jul 30, 2021 da Guiana Space Centre

Loading…

TLE

In scadenzaSource: Space-Track

Epoca: Sep 14, 2026, 12:09 UTC

1 49058U 21069D   26257.50653660  .00005879  00000-0  14076-2 0  9996
2 49058   2.8821   4.0532 7125820   0.4829 359.8914  2.48091760 44601

Traccia ARIANE 5 R/B in tempo reale con AllMySat

Download on the App Store